Data for 07/15/2018

Time Sea-Level Adjusted Pressure Absolute Pressure Temperature Relative Humidity Dew Point   
(mb) (inHg) (mb) (inHg) (C) (F) (%) (C) (F)
00:05 1026 30.3 855 25.25 15.2 59.4 68 9.3 48.8
00:10 1026 30.3 855 25.25 15.1 59.2 68 9.3 48.8
00:15 1026 30.3 855 25.25 15 59 68 9.2 48.6
00:20 1026 30.3 855 25.25 15.1 59.1 68 9.2 48.5
00:25 1026 30.3 855 25.25 15 58.9 68 9.2 48.6
00:30 1026 30.3 855 25.25 14.9 58.8 68 9.1 48.4
00:35 1026 30.3 855 25.25 14.8 58.7 68 9 48.3
00:40 1026 30.3 855 25.25 14.8 58.6 68 9.1 48.3
00:45 1026 30.3 855 25.25 14.8 58.6 67 8.9 48
00:50 1026 30.3 855 25.25 14.8 58.6 68 8.9 48
00:55 1026 30.3 855 25.25 14.7 58.5 67 8.8 47.8
01:00 1026 30.3 855 25.25 14.7 58.4 67 8.7 47.7
01:05 1026 30.3 855 25.25 14.7 58.4 67 8.7 47.7
01:10 1026 30.3 855 25.25 14.6 58.3 67 8.7 47.7
01:15 1026 30.3 855 25.25 14.6 58.3 67 8.6 47.4
01:20 1026 30.3 855 25.25 14.6 58.4 67 8.6 47.5
01:25 1026 30.3 855 25.25 14.6 58.2 67 8.6 47.5
01:30 1026 30.3 855 25.25 14.6 58.2 66 8.5 47.2
01:35 1026 30.3 855 25.25 14.6 58.3 66 8.5 47.2
01:40 1026 30.3 855 25.25 14.6 58.2 66 8.4 47.1
01:45 1026 30.3 855 25.25 14.6 58.2 67 8.5 47.4
01:50 1026 30.3 855 25.25 14.5 58 67 8.4 47.1
01:55 1026 30.3 855 25.25 14.4 58 67 8.4 47.2
02:00 1026 30.3 855 25.25 14.4 57.9 67 8.4 47.2
02:05 1026 30.3 855 25.25 14.4 57.8 67 8.4 47.2
02:10 1026 30.3 855 25.25 14.3 57.8 67 8.4 47.1
02:15 1026 30.3 855 25.25 14.3 57.7 67 8.4 47.1
02:20 1026 30.3 855 25.25 14.3 57.8 67 8.3 46.9
02:25 1025 30.27 855 25.25 14.4 57.8 67 8.3 47
02:30 1025 30.27 855 25.25 14.3 57.8 67 8.3 46.9
02:35 1025 30.27 855 25.25 14.4 57.9 66 8.3 46.9
02:40 1025 30.27 855 25.25 14.4 57.9 67 8.3 47
02:45 1025 30.27 855 25.25 14.3 57.8 67 8.4 47.1
02:50 1025 30.27 855 25.25 14.3 57.7 67 8.3 46.9
02:55 1025 30.27 855 25.25 14.3 57.7 67 8.4 47
03:00 1025 30.27 855 25.25 14.2 57.6 67 8.3 46.9
03:05 1025 30.27 855 25.25 14.3 57.7 67 8.3 47
03:10 1025 30.27 855 25.25 14.2 57.6 67 8.4 47.1
03:15 1025 30.27 855 25.25 14.2 57.6 67 8.3 47
03:20 1025 30.27 855 25.25 14.2 57.5 68 8.4 47
03:25 1025 30.27 855 25.25 14.2 57.5 68 8.4 47.1
03:30 1025 30.27 855 25.25 14.1 57.3 68 8.4 47.2
03:35 1025 30.27 855 25.25 14 57.3 69 8.4 47.2
03:40 1026 30.3 855 25.25 14 57.3 68 8.4 47.1
03:45 1026 30.3 855 25.25 14.1 57.3 69 8.4 47.2
03:50 1026 30.3 855 25.25 14 57.3 69 8.4 47.1
03:55 1026 30.3 855 25.25 14 57.3 69 8.4 47.1
04:00 1025 30.27 855 25.25 14 57.3 69 8.4 47.1
04:05 1025 30.27 855 25.25 14.1 57.3 69 8.4 47.2
04:10 1025 30.27 855 25.25 14 57.3 69 8.4 47.1
04:15 1025 30.27 854 25.22 14 57.3 69 8.4 47.1
04:20 1025 30.27 854 25.22 14 57.3 69 8.4 47.1
04:25 1025 30.27 854 25.22 14.1 57.3 69 8.4 47.2
04:30 1025 30.27 854 25.22 14 57.2 69 8.5 47.2
04:35 1025 30.27 854 25.22 14 57.1 69 8.4 47.1
04:40 1025 30.27 854 25.22 14 57.2 69 8.4 47.1
04:45 1025 30.27 854 25.22 14 57.1 69 8.5 47.2
04:50 1025 30.27 854 25.22 13.9 57 69 8.4 47.1
04:55 1025 30.27 854 25.22 13.9 57.1 69 8.4 47.1
05:00 1025 30.27 854 25.22 14 57.1 69 8.4 47.1
05:05 1025 30.27 854 25.22 13.9 57 69 8.4 47.2
05:10 1025 30.27 854 25.22 13.8 56.8 70 8.4 47.1
05:15 1025 30.27 854 25.22 13.8 56.8 70 8.4 47.1
05:20 1025 30.27 854 25.22 13.9 56.9 69 8.4 47.1
05:25 1025 30.27 854 25.22 13.8 56.8 69 8.3 47
05:30 1025 30.27 854 25.22 13.8 56.9 70 8.4 47.1
05:35 1025 30.27 854 25.22 13.8 56.9 69 8.3 47
05:40 1025 30.27 854 25.22 13.8 56.9 69 8.3 47
05:45 1025 30.27 854 25.22 13.8 56.9 69 8.3 46.9
05:50 1025 30.27 854 25.22 13.8 56.9 69 8.4 47.1
05:55 1025 30.27 854 25.22 13.8 56.9 69 8.3 47
06:00 1025 30.27 854 25.22 13.9 56.9 69 8.3 47
06:05 1025 30.27 854 25.22 13.9 57 69 8.3 47
06:10 1025 30.27 854 25.22 13.9 57 69 8.4 47.1
06:15 1025 30.27 854 25.22 13.9 57 69 8.4 47.1
06:20 1025 30.27 854 25.22 13.9 57 69 8.4 47.1
06:25 1025 30.27 854 25.22 13.9 57 69 8.4 47.1
06:30 1025 30.27 854 25.22 13.9 56.9 69 8.4 47.1
06:35 1025 30.27 854 25.22 13.9 57.1 69 8.3 47
06:40 1025 30.27 854 25.22 14 57.2 68 8.3 46.9
06:45 1025 30.27 854 25.22 14.1 57.3 68 8.3 46.9
06:50 1025 30.27 854 25.22 14.1 57.3 68 8.4 47
06:55 1025 30.27 854 25.22 14.1 57.4 68 8.3 47
07:00 1025 30.27 854 25.22 14.2 57.5 67 8.3 46.9
07:05 1025 30.27 854 25.22 14.3 57.7 67 8.2 46.8
07:10 1025 30.27 854 25.22 14.4 57.9 67 8.3 47
07:15 1025 30.27 854 25.22 14.5 58.1 66 8.3 47
07:20 1025 30.27 854 25.22 14.6 58.3 66 8.3 47
07:25 1025 30.27 854 25.22 14.7 58.4 66 8.4 47
07:30 1025 30.27 854 25.22 14.8 58.6 65 8.3 46.9
07:35 1025 30.27 854 25.22 14.9 58.8 65 8.5 47.3
07:40 1025 30.27 854 25.22 15 59 65 8.5 47.2
07:45 1025 30.27 854 25.22 15 59 65 8.5 47.3
07:50 1025 30.27 854 25.22 15 59.1 64 8.4 47.2
07:55 1025 30.27 854 25.22 15.1 59.2 65 8.6 47.4
08:00 1025 30.27 854 25.22 15.4 59.6 63 8.4 47.2
08:05 1025 30.27 854 25.22 15.4 59.6 63 8.4 47.1
08:10 1025 30.27 854 25.22 15.5 59.9 62 8.5 47.2
08:15 1025 30.27 854 25.22 15.6 60.1 62 8.5 47.3
08:20 1025 30.27 854 25.22 15.7 60.3 62 8.6 47.4
08:25 1025 30.27 854 25.22 15.7 60.3 62 8.6 47.5
08:30 1025 30.27 854 25.22 15.8 60.4 61 8.4 47.2
08:35 1025 30.27 854 25.22 15.8 60.4 61 8.5 47.2
08:40 1025 30.27 854 25.22 15.7 60.3 62 8.6 47.4
08:45 1025 30.27 854 25.22 15.8 60.4 62 8.5 47.3
08:50 1025 30.27 854 25.22 16.3 61.4 61 8.8 47.8
08:55 1025 30.27 854 25.22 16.3 61.4 62 9.1 48.4
09:00 1025 30.27 854 25.22 16.5 61.7 60 8.8 47.9
09:05 1025 30.27 854 25.22 16.6 61.8 60 8.9 48
09:10 1025 30.27 854 25.22 16.9 62.5 59 8.9 48.1
09:15 1025 30.27 854 25.22 16.8 62.3 59 8.8 47.9
09:20 1025 30.27 854 25.22 17 62.6 58 8.8 47.8
09:25 1025 30.27 854 25.22 17.2 63 58 8.9 48
09:30 1025 30.27 854 25.22 17.2 63 59 9.3 48.8
09:35 1025 30.27 854 25.22 17.6 63.7 57 9.1 48.4
09:40 1025 30.27 854 25.22 17.6 63.7 57 9 48.3
09:45 1025 30.27 854 25.22 17.8 64 56 9.1 48.4
09:50 1025 30.27 854 25.22 17.9 64.2 56 9.1 48.5
09:55 1025 30.27 854 25.22 17.9 64.1 57 9.4 49
10:00 1025 30.27 854 25.22 18.1 64.6 56 9.4 49
10:05 1025 30.27 854 25.22 17.9 64.3 57 9.5 49.1
10:10 1025 30.27 854 25.22 17.8 64 59 9.9 49.8
10:15 1025 30.27 854 25.22 17.7 63.9 56 9 48.1
10:20 1025 30.27 854 25.22 17.8 64 58 9.4 48.9
10:25 1025 30.27 854 25.22 17.7 63.9 57 9.1 48.3
10:30 1025 30.27 854 25.22 18.4 65.1 55 9.3 48.8
10:35 1025 30.27 854 25.22 18.4 65.2 56 9.5 49.1
10:40 1025 30.27 854 25.22 18.8 65.9 54 9.5 49.1
10:45 1025 30.27 854 25.22 19 66.2 54 9.7 49.5
10:50 1024 30.24 854 25.22 18.7 65.6 55 9.6 49.4
10:55 1024 30.24 854 25.22 18.5 65.3 57 9.8 49.7
11:00 1024 30.24 854 25.22 19 66.2 55 9.9 49.8
11:05 1024 30.24 854 25.22 18.8 65.8 55 9.6 49.2
11:10 1024 30.24 854 25.22 19.2 66.6 54 9.8 49.7
11:15 1024 30.24 854 25.22 19.6 67.4 52 9.6 49.3
11:20 1024 30.24 854 25.22 19.5 67 52 9.4 49
11:25 1024 30.24 854 25.22 19 66.3 55 9.8 49.6
11:30 1024 30.24 854 25.22 19.6 67.2 52 9.7 49.5
11:35 1024 30.24 854 25.22 20 67.9 52 10 50.1
11:40 1024 30.24 853 25.19 20.5 69 48 9.3 48.8
11:45 1024 30.24 853 25.19 20.6 69.1 50 10 49.9
11:50 1024 30.24 853 25.19 20.5 69 50 9.9 49.7
11:55 1024 30.24 853 25.19 20.8 69.5 49 9.8 49.7
12:00 1024 30.24 853 25.19 21.1 70 48 9.8 49.7
12:05 1024 30.24 853 25.19 21.5 70.7 47 10 49.9
12:10 1024 30.24 853 25.19 22.2 71.9 45 9.8 49.6
12:15 1024 30.24 853 25.19 22.3 72.2 45 10.1 50.2
12:20 1024 30.24 853 25.19 22.3 72.2 48 10.9 51.7
12:25 1024 30.24 853 25.19 21.6 70.9 48 10.2 50.4
12:30 1024 30.24 853 25.19 22.4 72.2 46 10.2 50.4
12:35 1024 30.24 853 25.19 22.6 72.7 45 10.2 50.3
12:40 1024 30.24 853 25.19 23 73.4 45 10.5 50.9
12:45 1024 30.24 853 25.19 22.9 73.2 46 10.8 51.4
12:50 1024 30.24 853 25.19 23.1 73.6 42 9.8 49.6
12:55 1024 30.24 853 25.19 24.2 75.6 41 10.2 50.4
13:00 1024 30.24 853 25.19 23.7 74.6 46 11.5 52.8
13:05 1023 30.21 853 25.19 23 73.4 44 10.2 50.4
13:10 1023 30.21 853 25.19 23.9 75 41 10.2 50.3
13:15 1023 30.21 853 25.19 24.7 76.5 40 10.6 51.1
13:20 1023 30.21 853 25.19 25 76.9 39 10.4 50.8
13:25 1023 30.21 853 25.19 24.8 76.6 41 10.9 51.5
13:30 1023 30.21 853 25.19 23.6 74.4 44 10.9 51.6
13:35 1023 30.21 853 25.19 23.4 74.2 42 10 50
13:40 1023 30.21 852 25.16 24.4 75.9 41 10.6 51.1
13:45 1023 30.21 852 25.16 25.5 77.9 37 10.2 50.3
13:50 1023 30.21 852 25.16 25.3 77.6 38 10.4 50.7
13:55 1023 30.21 852 25.16 25.7 78.2 36 9.8 49.6
14:00 1023 30.21 852 25.16 26.4 79.5 35 10 50
14:05 1023 30.21 852 25.16 26.7 80 37 11 51.8
14:10 1023 30.21 852 25.16 25.8 78.4 38 10.8 51.4
14:15 1023 30.21 852 25.16 25.5 77.9 38 10.4 50.8
14:20 1023 30.21 852 25.16 24.9 76.9 37 9.6 49.2
14:25 1023 30.21 852 25.16 25.6 78.1 36 9.6 49.3
14:30 1023 30.21 852 25.16 26.1 79.1 34 9.2 48.5
14:35 1023 30.21 852 25.16 26.7 80 34 9.6 49.3
14:40 1023 30.21 852 25.16 26.1 78.9 33 8.9 48.1
14:45 1023 30.21 852 25.16 26.2 79.2 35 10 49.9
14:50 1023 30.21 852 25.16 26.1 79.1 33 9 48.3
14:55 1023 30.21 852 25.16 26.4 79.6 35 10 50
15:00 1023 30.21 852 25.16 26.6 79.9 33 9.4 49
15:05 1023 30.21 852 25.16 27.1 80.8 33 9.6 49.2
15:10 1023 30.21 852 25.16 27.6 81.6 32 9.8 49.6
15:15 1023 30.21 852 25.16 27.9 82.2 32 10 50.1
15:20 1023 30.21 852 25.16 27.9 82.3 31 9.5 49.1
15:25 1023 30.21 852 25.16 27.6 81.6 32 9.7 49.5
15:30 1023 30.21 852 25.16 27.2 80.9 30 8.3 47
15:35 1023 30.21 852 25.16 27.6 81.6 29 8.2 46.8
15:40 1023 30.21 852 25.16 28.2 82.8 27 7.5 45.5
15:45 1023 30.21 852 25.16 28.1 82.5 27 7.5 45.5
15:50 1022 30.18 852 25.16 28 82.3 29 8.5 47.2
15:55 1022 30.18 852 25.16 28.3 82.9 26 7.3 45.1
16:00 1022 30.18 852 25.16 28.3 83 26 7.5 45.4
16:05 1022 30.18 852 25.16 28.4 83.1 26 7.5 45.5
16:10 1022 30.18 852 25.16 27.6 81.7 28 7.6 45.7
16:15 1022 30.18 851 25.13 27.5 81.4 26 6.3 43.3
16:20 1022 30.18 851 25.13 28.2 82.8 21 4.1 39.4
16:25 1022 30.18 851 25.13 28.7 83.6 24 6.2 43.1
16:30 1022 30.18 851 25.13 27.7 81.8 21 3.7 38.6
16:35 1022 30.18 851 25.13 27.5 81.4 23 4.5 40.2
16:40 1022 30.18 851 25.13 27.9 82.1 24 5.9 42.6
16:45 1022 30.18 851 25.13 28.5 83.4 23 5.8 42.5
16:50 1022 30.18 851 25.13 29.2 84.6 22 5.6 42
16:55 1022 30.18 851 25.13 28.8 83.9 19 3.2 37.8
17:00 1022 30.18 851 25.13 29.4 84.9 19 3.5 38.4
17:05 1022 30.18 851 25.13 29.7 85.4 18 3.2 37.7
17:10 1022 30.18 851 25.13 29.9 85.8 18 3.7 38.7
17:15 1022 30.18 851 25.13 29.1 84.4 19 3.7 38.6
17:20 1022 30.18 851 25.13 29.1 84.3 20 3.8 38.9
17:25 1022 30.18 851 25.13 29.4 84.8 20 4.2 39.5
17:30 1022 30.18 851 25.13 29.5 85.2 19 3.7 38.7
17:35 1022 30.18 851 25.13 29.5 85.1 20 4.8 40.6
17:40 1022 30.18 851 25.13 28.6 83.5 21 4.2 39.5
17:45 1022 30.18 851 25.13 28.4 83.1 22 5.2 41.4
17:50 1021 30.15 851 25.13 28.8 83.8 20 3.8 38.9
17:55 1021 30.15 851 25.13 28.4 83.1 23 5.5 42
18:00 1021 30.15 851 25.13 28 82.3 21 4 39.1
18:05 1021 30.15 851 25.13 28 82.4 21 3.6 38.6
18:10 1021 30.15 851 25.13 28.5 83.2 19 2.8 37
18:15 1021 30.15 851 25.13 27.8 82.1 22 4.5 40
18:20 1021 30.15 851 25.13 27.5 81.6 23 5 41
18:25 1021 30.15 851 25.13 28.2 82.8 22 4.8 40.6
18:30 1021 30.15 850 25.1 27.7 81.8 22 4.3 39.8
18:35 1021 30.15 851 25.13 27.6 81.7 20 2.7 36.9
18:40 1021 30.15 851 25.13 28.1 82.5 20 3.6 38.5
18:45 1021 30.15 850 25.1 28.3 82.9 20 3.7 38.7
18:50 1021 30.15 850 25.1 27.9 82.1 20 3.4 38.2
18:55 1021 30.15 850 25.1 27.3 81.2 22 3.7 38.7
19:00 1021 30.15 850 25.1 27.1 80.8 21 3.2 37.8
19:05 1021 30.15 850 25.1 27.4 81.2 22 4.1 39.3
19:10 1021 30.15 850 25.1 27.2 81 22 3.7 38.7
19:15 1021 30.15 850 25.1 27.4 81.3 22 4.3 39.7
19:20 1021 30.15 850 25.1 27.5 81.6 22 4.3 39.8
19:25 1021 30.15 850 25.1 27.4 81.2 22 3.9 39.1
19:30 1021 30.15 850 25.1 27.2 80.9 21 3.3 38
19:35 1021 30.15 850 25.1 27.1 80.8 21 3.4 38.1
19:40 1021 30.15 850 25.1 26.9 80.4 21 3.1 37.7
19:45 1021 30.15 850 25.1 26.7 80.1 22 3.8 38.9
19:50 1021 30.15 850 25.1 26.6 79.8 22 3.7 38.7
19:55 1021 30.15 850 25.1 26.6 79.8 22 3.7 38.7
20:00 1021 30.15 850 25.1 26.5 79.7 24 4.3 39.8
20:05 1021 30.15 850 25.1 26.4 79.5 25 5 41
20:10 1021 30.15 850 25.1 26.4 79.4 23 4 39.3
20:15 1021 30.15 850 25.1 25.8 78.4 34 9 48.2
20:20 1021 30.15 850 25.1 24.2 75.6 39 9.7 49.4
20:25 1021 30.15 850 25.1 23.8 74.8 43 10.6 51.1
20:30 1021 30.15 850 25.1 23.5 74.2 44 10.6 51.1
20:35 1021 30.15 851 25.13 23.2 73.8 45 10.9 51.5
20:40 1021 30.15 851 25.13 23 73.3 46 10.9 51.7
20:45 1021 30.15 851 25.13 22.8 73 47 11 51.8
20:50 1021 30.15 851 25.13 22.6 72.6 47 10.9 51.7
20:55 1021 30.15 851 25.13 22.4 72.4 48 10.9 51.7
21:00 1021 30.15 851 25.13 22.3 72.1 48 10.8 51.4
21:05 1022 30.18 851 25.13 22 71.7 47 10.3 50.5
21:10 1022 30.18 851 25.13 21.9 71.5 47 10.2 50.4
21:15 1022 30.18 851 25.13 21.8 71.2 48 10.3 50.6
21:20 1022 30.18 851 25.13 21.6 71 48 10.2 50.3
21:25 1022 30.18 851 25.13 21.6 70.8 48 10.1 50.2
21:30 1022 30.18 851 25.13 21.5 70.6 47 9.9 49.9
21:35 1022 30.18 851 25.13 21.5 70.8 47 10 50
21:40 1022 30.18 851 25.13 21.6 70.8 47 10.1 50.1
21:45 1022 30.18 851 25.13 21.5 70.7 48 10.1 50.2
21:50 1022 30.18 851 25.13 21.3 70.4 48 10.2 50.3
21:55 1022 30.18 851 25.13 21.2 70.2 49 10.2 50.3
22:00 1022 30.18 851 25.13 21.2 70.1 49 10.3 50.5
22:05 1022 30.18 851 25.13 21.1 69.9 50 10.4 50.7
22:10 1022 30.18 851 25.13 20.9 69.5 51 10.4 50.8
22:15 1022 30.18 851 25.13 20.7 69.3 51 10.2 50.4
22:20 1022 30.18 851 25.13 20.7 69.3 50 10.2 50.3
22:25 1022 30.18 851 25.13 20.7 69.3 51 10.3 50.5
22:30 1022 30.18 851 25.13 20.6 69.2 51 10.2 50.4
22:35 1022 30.18 852 25.16 20.6 69 51 10.3 50.5
22:40 1022 30.18 852 25.16 20.5 68.9 51 10.3 50.5
22:45 1022 30.18 852 25.16 20.4 68.7 52 10.3 50.6
22:50 1022 30.18 852 25.16 20.4 68.6 51 10.1 50.1
22:55 1022 30.18 852 25.16 20.5 68.9 51 10 50.1
23:00 1022 30.18 852 25.16 20.6 69 50 10 49.9
23:05 1022 30.18 852 25.16 20.6 69.1 50 9.9 49.8
23:10 1022 30.18 852 25.16 20.8 69.4 49 9.8 49.7
23:15 1022 30.18 852 25.16 20.9 69.5 49 9.8 49.7
23:20 1022 30.18 852 25.16 20.9 69.6 49 9.9 49.9
23:25 1022 30.18 852 25.16 20.9 69.6 49 9.9 49.7
23:30 1022 30.18 852 25.16 20.9 69.6 49 9.8 49.6
23:35 1023 30.21 852 25.16 20.8 69.5 49 9.9 49.9
23:40 1023 30.21 852 25.16 20.7 69.2 50 9.9 49.9
23:45 1023 30.21 852 25.16 20.5 68.9 50 10 50
23:50 1023 30.21 852 25.16 20.5 68.8 50 9.8 49.6
23:55 1023 30.21 852 25.16 20.5 68.8 51 10 50
24:00 1023 30.21 852 25.16 20.3 68.6 51 10 50